Theta_e
286 285 284 282 282 283 283 280 276 274 274 274 274 274 275 277 280 285 289 292 294 295 294 296 298 300 300 308 316 317 317 317 317 315 319 320 319 318 316 313 310 307 305
285 284 283 282 282 283 282 277 275 274 273 273 272 273 273 276 279 282 286 291 293 295 293 294 297 301 301 312 316 317 317 317 316 317 317 318 318 318 316 314 312 309 306
284 283 283 281 282 282 280 276 275 273 272 274 272 273 274 274 277 281 284 289 291 292 293 294 297 298 300 312 315 316 317 316 316 318 317 316 318 317 315 314 312 310 307
284 282 281 281 281 280 278 276 275 273 271 275 273 273 274 275 277 279 281 287 290 291 293 293 295 298 301 301 313 315 316 316 315 315 314 316 317 316 315 312 312 312 311
283 282 280 280 280 280 278 277 275 273 271 274 273 274 274 276 276 278 280 284 288 290 292 293 295 298 300 306 313 314 314 315 315 314 311 312 312 312 312 312 312 312 314
282 280 279 279 280 279 278 277 276 273 272 274 274 275 275 276 277 276 278 280 284 289 290 292 294 298 302 303 314 314 315 315 315 314 312 313 314 316 313 313 311 314 314
281 279 278 278 280 279 278 277 276 273 272 273 274 275 276 276 277 275 277 279 282 286 289 291 293 296 301 302 313 313 315 315 317 317 313 313 315 316 315 315 312 314 311
280 278 277 278 279 278 278 277 274 271 270 269 273 275 276 278 278 275 276 279 281 284 287 290 292 295 301 302 310 313 313 314 315 317 316 315 315 315 315 314 315 315 312
278 276 277 277 278 278 277 276 270 270 271 270 272 273 276 279 279 278 276 279 281 283 286 288 291 294 299 302 306 313 313 314 315 315 315 315 315 316 315 314 314 313 309
276 275 276 277 277 277 276 272 269 269 269 269 273 276 277 279 281 280 277 278 281 282 285 288 291 294 296 302 304 312 312 313 313 311 315 314 314 315 315 314 313 313 308
275 275 277 278 278 275 274 271 266 268 268 269 272 275 277 278 281 283 282 279 282 284 286 290 292 294 294 302 304 311 313 312 311 313 312 312 312 313 313 314 313 313 312
274 275 277 278 276 274 274 269 266 266 266 268 270 273 275 278 279 282 285 282 284 286 288 291 292 294 294 303 305 308 312 313 312 311 311 311 311 311 312 312 313 312 311
274 275 276 277 276 273 272 267 264 265 265 267 269 271 272 274 278 282 284 288 289 290 290 291 292 293 295 303 305 307 312 312 311 311 311 312 312 311 312 311 312 310 312
273 274 275 275 275 273 271 267 264 264 265 267 268 268 271 272 276 279 282 284 286 292 292 292 292 294 300 303 306 307 309 310 312 311 311 311 311 311 311 309 309 310 310
272 273 274 274 273 272 270 267 264 264 266 267 267 268 270 269 272 275 277 281 287 290 294 295 296 297 298 303 305 306 309 310 309 312 309 309 310 312 311 310 310 310 310
271 271 273 273 273 271 271 271 269 265 265 265 265 268 267 268 271 273 275 285 290 291 292 293 296 297 300 304 304 304 305 307 308 309 307 308 310 310 309 309 310 309 308
270 270 271 272 272 270 270 269 268 273 270 265 263 266 266 267 269 270 276 287 291 292 292 294 296 299 302 303 304 304 304 305 307 306 305 306 307 308 311 310 307 305 305
270 269 269 271 271 270 269 269 267 266 267 270 268 265 263 265 266 267 277 286 291 293 294 296 298 300 302 304 304 304 303 304 305 304 304 305 306 308 309 308 303 305 304
269 269 268 269 270 270 269 269 269 268 267 269 269 267 269 267 264 267 273 276 277 280 284 288 294 299 301 303 304 305 305 305 304 303 304 304 304 305 308 309 307 306 304
268 268 268 268 268 269 269 269 268 269 267 268 267 264 269 271 270 269 269 269 270 272 274 278 284 292 298 300 301 303 304 304 304 304 304 304 305 306 308 306 306 303 301
268 268 268 267 267 266 267 268 267 268 267 267 268 264 267 268 267 267 266 267 268 270 271 273 277 283 290 295 299 300 301 304 304 304 303 303 304 305 305 309 308 306 305
267 267 267 267 266 266 266 265 266 267 267 267 268 268 269 269 269 269 269 268 268 270 270 271 273 276 281 287 292 296 298 298 299 300 301 302 303 304 305 307 304 304 304
267 267 267 266 266 266 266 265 265 265 266 267 267 267 268 268 268 269 269 269 270 271 271 271 274 276 278 281 285 289 293 295 296 297 298 299 300 300 301 301 302 301 300
266 266 266 266 266 266 265 265 265 265 264 265 266 266 266 267 268 268 269 270 271 271 272 272 272 274 277 279 281 284 287 290 292 294 295 296 297 297 298 298 299 299 300
265 266 266 266 265 265 265 265 265 265 264 264 265 264 264 266 267 268 268 269 269 270 271 272 272 273 275 277 278 280 282 286 288 290 292 294 295 295 296 296 296 296 296
265 265 266 265 265 265 265 265 265 264 264 264 264 264 264 264 265 265 266 268 268 268 270 271 272 271 273 274 276 277 279 281 283 285 287 289 290 291 291 292 293 293 293
Wind_Speed
42 45 49 51 51 50 52 52 49 46 45 46 44 41 37 39 36 38 33 25 36 34 32 28 35 53 53 34 57 61 61 53 52 50 61 59 55 56 55 52 50 48 47
43 47 50 52 53 51 53 51 49 47 43 44 43 39 42 40 34 37 36 27 31 35 28 35 30 46 31 42 58 62 62 56 55 59 59 62 62 58 59 56 50 49 48
44 47 50 52 52 51 52 52 51 46 45 44 38 39 38 37 34 35 39 32 21 27 28 31 30 42 35 34 49 58 56 54 58 59 62 64 66 64 63 57 55 53 54
45 48 50 51 51 52 52 53 52 46 43 40 37 37 37 36 33 32 38 38 29 24 27 32 26 33 34 30 58 56 56 55 58 60 59 64 65 69 65 61 60 58 57
46 48 50 50 50 52 53 52 50 45 42 39 37 35 35 36 33 30 34 39 37 28 26 34 28 27 30 33 57 58 57 62 64 59 53 58 59 65 65 67 65 63 62
46 48 49 50 52 53 53 51 47 42 39 36 34 33 34 35 33 32 30 34 38 35 30 31 33 29 32 19 62 57 62 67 67 62 60 65 65 71 67 68 67 66 54
46 48 50 51 52 53 52 49 44 41 38 35 34 32 33 34 33 30 32 32 38 42 39 31 37 27 39 16 59 56 56 65 66 63 63 68 72 78 76 74 73 70 58
45 47 49 50 51 51 50 47 44 43 41 39 37 34 35 34 33 30 30 31 36 45 45 42 40 32 32 26 45 62 63 65 64 62 63 67 62 75 81 76 75 69 53
44 47 47 48 50 49 49 48 44 43 40 39 35 35 36 34 29 28 28 31 36 39 44 49 44 40 33 27 27 64 68 68 64 64 58 61 59 70 75 71 68 70 56
44 45 45 45 46 48 48 46 42 41 39 35 32 29 32 34 28 26 26 28 34 36 44 41 41 41 30 26 28 66 70 69 68 61 62 62 63 65 70 74 75 68 56
42 43 43 43 46 46 46 44 41 39 36 34 31 30 29 33 31 21 26 29 32 32 35 31 39 39 35 32 35 65 65 68 67 65 60 61 61 64 65 74 73 75 75
40 41 41 42 45 46 46 44 41 36 36 35 34 34 32 28 26 26 18 25 29 32 31 33 39 37 33 36 40 57 70 69 67 65 61 58 59 58 58 62 67 66 65
38 39 40 41 43 44 46 43 39 35 34 37 36 36 38 34 29 19 18 23 28 29 30 34 37 34 28 36 38 58 70 68 66 67 67 65 63 59 56 53 57 63 57
36 37 39 40 43 44 44 40 35 34 37 36 36 39 41 41 33 24 23 24 18 27 32 37 35 29 28 33 42 60 66 67 70 67 66 64 63 61 59 55 59 59 61
34 35 36 38 40 43 43 38 34 31 30 31 34 35 39 45 38 35 35 30 20 17 22 25 31 32 33 35 48 60 63 62 63 63 64 66 66 66 66 64 62 62 62
32 33 35 37 38 41 44 46 40 31 28 26 26 32 36 31 31 36 38 29 19 23 25 28 32 37 34 39 48 52 57 62 64 64 65 66 69 69 67 64 61 63 65
29 31 32 33 36 38 41 44 50 50 42 35 32 35 32 29 29 32 31 25 18 18 27 28 32 34 37 42 51 54 58 61 62 60 61 66 66 67 65 62 66 65 63
25 28 30 31 33 35 37 40 42 48 53 53 48 40 35 31 30 31 13 6 15 18 23 23 28 35 39 44 48 52 54 56 58 58 59 61 64 68 67 65 66 66 64
24 26 27 28 29 32 35 38 40 44 48 50 54 55 47 38 34 34 31 28 23 19 15 8 15 29 33 38 47 50 52 55 57 57 58 59 62 67 70 70 67 66 65
20 23 25 26 28 30 33 37 40 42 44 48 49 50 54 54 53 49 44 39 34 29 26 20 13 13 25 32 37 46 50 51 52 56 58 61 62 66 70 70 66 63 64
18 20 22 23 26 29 31 34 37 39 41 43 45 42 45 54 53 52 50 48 44 40 38 32 27 18 11 20 33 37 40 46 50 53 57 62 64 65 65 66 63 61 64
16 18 19 22 23 26 29 31 33 36 38 41 42 43 45 48 50 50 49 48 48 46 44 40 37 33 25 14 14 26 33 35 41 47 53 56 59 63 63 67 62 62 64
13 15 17 19 21 23 25 28 31 33 35 37 39 41 43 45 45 46 47 47 47 46 46 47 42 39 37 31 21 13 17 24 32 38 41 48 53 55 56 57 60 59 57
11 13 15 17 19 21 23 26 28 30 32 34 35 37 38 40 41 42 43 44 44 44 46 47 47 43 38 37 32 26 18 10 12 22 31 37 41 44 46 46 48 49 48
9 11 14 15 17 19 21 23 25 27 29 31 32 33 33 35 36 38 39 40 42 43 42 44 46 44 43 39 36 32 25 18 14 11 13 19 25 28 31 33 33 34 35
8 10 12 13 15 17 19 21 23 24 26 28 29 30 30 31 32 33 35 35 36 38 40 41 41 43 41 40 39 37 34 27 20 16 14 13 13 14 14 16 19 23 25
Wind_Direction
331 329 328 326 327 325 324 324 320 314 307 308 304 298 288 277 267 255 259 269 265 271 279 257 262 260 259 255 185 188 187 183 180 185 196 193 195 186 184 186 185 188 194
331 329 328 327 326 325 327 325 319 315 309 305 300 293 287 282 274 255 255 261 261 263 273 255 254 249 298 204 185 186 187 185 180 182 188 197 201 200 189 187 190 195 194
330 329 327 327 326 328 329 325 322 317 312 311 299 295 291 284 275 257 253 252 254 275 268 264 261 251 260 209 188 186 187 185 193 197 186 187 190 189 187 189 189 192 191
330 329 327 328 330 330 330 328 322 319 315 313 304 297 291 284 275 265 254 251 254 256 268 267 262 253 257 296 196 189 187 182 189 194 186 190 195 192 188 185 189 192 190
330 329 330 331 332 333 331 329 325 323 318 312 304 301 294 285 274 263 258 252 252 252 267 270 265 252 254 267 191 189 183 186 187 187 183 183 186 185 182 188 190 194 194
330 332 333 334 335 333 333 330 326 327 321 313 308 304 299 291 282 265 263 262 251 249 252 266 260 243 240 264 202 199 200 193 189 189 189 187 189 192 185 188 192 193 188
332 334 336 338 336 335 335 332 331 331 323 317 312 307 301 297 292 276 266 260 253 247 250 254 263 251 244 281 204 207 210 212 211 203 195 192 190 190 190 191 194 193 187
334 337 339 338 337 336 337 334 338 333 325 317 315 314 306 297 292 276 263 256 258 248 245 249 257 263 243 242 204 205 200 205 209 212 212 201 206 194 191 194 195 194 195
337 339 341 341 339 339 341 340 340 329 326 319 316 315 311 304 292 280 258 244 249 252 245 249 251 257 236 234 216 189 199 204 210 212 214 209 204 201 194 194 194 193 189
339 341 344 342 342 344 346 342 340 332 325 319 315 322 320 313 298 280 261 248 249 254 243 241 247 249 250 220 213 199 195 196 201 193 205 205 204 201 205 201 200 198 191
340 343 344 346 348 350 346 347 341 333 328 328 322 317 325 326 323 282 257 246 249 251 251 238 247 245 251 219 207 201 206 200 200 200 203 200 202 202 204 208 209 209 206
343 344 347 352 355 353 351 351 343 340 333 331 331 326 321 322 329 317 273 240 240 246 241 244 245 244 240 218 212 202 201 204 202 198 198 198 199 203 204 211 210 210 209
345 347 352 357 359 360 358 353 343 343 336 336 331 326 324 326 319 334 300 268 245 244 245 248 250 246 237 229 219 203 202 206 198 196 200 204 203 201 202 203 204 214 214
347 351 356 359 2 4 5 0 346 343 343 336 334 331 331 323 318 325 321 304 285 245 246 251 253 248 229 233 212 199 201 202 204 202 203 203 200 200 197 200 200 207 210
352 356 359 3 5 7 8 8 353 348 345 338 337 337 329 321 317 317 311 300 285 274 267 266 251 240 237 230 200 194 202 206 202 207 200 199 200 200 202 202 207 208 212
355 359 4 5 8 10 10 11 20 4 358 354 347 346 333 323 321 318 313 294 264 249 249 254 244 238 227 209 194 192 193 198 201 202 201 204 204 204 204 206 207 209 211
359 3 7 8 11 13 15 16 12 21 25 17 5 0 355 347 339 335 316 300 280 235 246 244 236 224 210 198 197 193 195 200 204 201 200 205 208 207 206 205 206 210 211
4 6 10 11 13 17 18 20 21 20 17 19 27 9 9 9 8 6 359 258 209 220 223 222 219 214 206 200 197 195 196 197 202 200 201 205 207 207 202 207 207 210 212
7 9 12 14 16 19 21 23 26 27 26 25 24 24 31 33 30 42 61 64 64 74 81 109 172 185 190 195 206 204 207 206 205 201 203 206 206 206 204 208 214 214 215
9 10 12 15 18 20 23 25 26 29 31 30 29 19 27 38 42 46 49 51 54 58 59 59 67 141 178 188 192 203 204 206 210 208 208 211 214 213 208 210 215 214 214
11 11 14 17 21 23 24 27 27 28 30 34 34 30 32 40 42 44 46 47 48 52 53 51 58 66 131 176 190 194 204 213 216 217 213 210 213 214 214 218 224 223 223
12 13 15 19 22 25 28 28 29 29 29 30 35 38 40 42 43 44 47 48 50 52 52 51 56 60 62 87 159 187 195 199 204 211 213 216 217 218 218 217 217 221 222
16 16 18 21 22 25 27 29 30 30 30 29 31 34 38 41 42 43 45 48 51 53 54 53 53 57 62 63 73 116 167 190 202 208 211 213 214 214 212 211 215 216 215
17 19 21 20 21 24 26 27 30 31 31 32 31 33 35 37 40 43 43 46 49 50 53 54 52 52 56 59 59 67 78 108 175 201 210 214 213 213 213 214 217 220 223
17 21 22 20 19 22 24 26 27 28 30 30 32 34 36 37 38 40 43 44 46 47 50 53 54 51 53 56 59 59 63 73 89 122 167 193 203 207 210 212 215 219 221
22 19 22 22 20 21 23 24 24 25 26 28 30 32 33 38 41 40 40 43 44 47 47 48 52 52 50 52 55 59 59 61 65 77 98 121 142 155 171 187 198 205 207